Location: Arcizac
(43.0933°N, 0.0112°E)
Time: 13:41:02
(UTC+00:00)

Sich 1 Rocket - Pass Details

Date: 14 December 2019
Orbit: 617 x 652 km, 82.5° (Epoch: 26 January)

Event Time Altitude Azimuth Distance (km) Brightness Sun altitude
Rises 18:09:07 0° 348° (NNW) 2,904 7.0 -18.2°
Reaches altitude 10° 18:11:22 10° 345° (NNW) 1,991 6.2 -18.6°
Maximum altitude 18:15:43 63° 265° (W) 692 4.0 -19.3°
Drops below altitude 10° 18:20:02 10° 185° (S) 1,974 6.3 -20.1°
Sets 18:22:15 0° 182° (S) 2,877 7.2 -20.5°
